GFSGBSN_sfc_rhum_105.txt.gz
RH
77 78 80 83 87 88 88 93 92 92 91 91 90 89 87 86 82 82 82 83 79 76 70 68 66 71 70 27 16 24 62 72 59 55 30 27 26 23 20 19 22 30 27 26 25 24 24
79 80 82 83 84 85 87 87 91 93 92 91 90 91 89 87 84 83 83 84 80 73 69 68 66 72 72 23 14 32 32 60 49 38 32 25 21 19 23 31 26 26 23 22 22 22 23
73 78 80 82 83 83 85 87 88 89 93 92 91 91 92 90 90 85 83 83 76 72 70 68 67 72 82 28 26 32 38 47 37 33 32 29 28 29 27 22 23 25 30 28 27 26 26
72 73 76 81 82 83 84 86 87 87 89 92 91 92 92 91 90 88 88 88 77 72 70 68 69 74 72 40 45 50 42 34 30 30 28 27 28 28 21 21 23 28 32 30 27 25 23
71 75 78 83 85 85 84 84 86 86 87 88 92 92 93 92 93 92 90 85 76 70 66 66 76 78 64 44 39 36 36 27 27 29 29 20 22 25 22 25 27 34 28 36 31 25 25
72 73 75 76 77 78 77 77 79 84 84 85 86 93 94 93 94 93 84 73 66 72 72 67 70 73 55 28 34 38 47 32 24 25 28 28 25 25 28 28 32 32 36 38 37 25 24
74 74 75 77 81 80 82 81 88 86 88 85 89 95 95 94 93 88 82 78 92 90 88 63 65 48 34 39 42 26 41 35 28 32 35 29 32 36 30 30 26 29 32 28 26 23 27
80 79 79 82 82 80 78 80 80 86 90 89 92 93 93 94 90 84 65 55 59 54 63 63 60 60 45 45 48 37 29 34 33 36 38 35 38 31 30 30 29 28 29 32 29 26 28
84 84 81 80 80 80 78 79 79 88 90 89 89 95 95 93 87 83 74 56 59 61 85 62 50 52 45 45 37 41 24 28 32 39 40 44 38 34 29 31 32 34 38 38 36 29 29
81 84 82 80 83 82 82 82 86 87 90 90 94 94 94 91 88 84 80 61 51 52 60 45 36 43 48 48 53 24 26 23 28 35 34 36 30 38 39 38 37 43 32 31 32 38 34
82 83 84 86 89 90 88 89 91 90 92 94 96 94 92 75 84 76 60 51 47 65 90 33 39 32 51 39 30 41 28 28 30 31 31 30 33 35 34 31 30 33 33 36 36 37 41
83 81 82 84 89 91 86 93 94 94 94 97 95 92 84 84 82 82 83 79 84 92 84 40 37 45 64 54 32 35 33 28 28 32 34 29 29 30 30 30 30 30 34 36 41 40 47
84 80 82 86 91 91 92 96 96 95 96 95 93 86 78 80 89 77 68 78 91 84 40 43 43 44 43 41 37 36 40 42 40 47 46 38 34 34 38 39 34 36 40 39 44 55 40
81 81 79 86 90 95 95 96 97 97 95 93 91 85 79 91 91 86 89 98 94 56 44 29 30 43 51 23 24 25 47 50 46 39 47 33 48 41 33 29 30 36 42 43 52 51 47
77 85 80 79 88 97 97 97 98 96 94 92 83 94 94 96 92 79 88 92 68 48 30 28 24 30 29 25 24 45 55 54 50 50 47 60 55 39 31 30 29 40 55 45 57 63 56
81 87 86 81 82 90 94 95 93 92 90 82 96 98 96 96 93 94 98 90 53 32 32 34 34 34 32 33 29 39 53 51 52 50 49 55 51 49 40 31 28 35 28 48 76 61 43
84 88 87 86 85 84 83 84 84 87 84 75 94 98 95 95 98 99 95 78 45 32 30 39 36 40 38 37 35 42 53 52 52 58 46 47 42 49 36 34 34 32 35 47 58 74 55
84 86 87 88 88 89 88 89 89 89 91 91 99 98 95 98 99 100 82 57 52 44 42 41 42 42 47 57 40 40 54 54 52 52 49 60 57 51 40 46 43 42 56 61 58 53 67
83 84 86 88 87 88 88 88 87 85 82 98 100 100 96 98 97 94 62 61 47 40 39 40 46 40 40 46 47 54 63 57 50 57 64 57 58 49 55 49 44 52 49 64 76 68 73
85 84 84 87 87 86 86 86 84 82 78 89 96 99 100 93 96 73 77 70 44 39 40 42 43 40 47 50 50 54 63 44 47 64 61 57 54 41 34 44 50 64 57 50 63 79 54
82 80 81 88 86 86 86 84 74 77 71 80 84 90 74 95 95 73 62 53 48 44 36 38 41 44 46 51 47 52 48 45 46 65 74 68 64 62 50 49 61 57 54 56 60 60 71
81 77 81 86 83 82 82 83 72 73 71 82 96 78 71 68 74 70 58 48 45 44 44 42 48 43 42 45 43 49 48 44 45 79 81 78 76 76 66 52 51 54 45 49 49 53 52
75 74 79 83 81 69 71 72 74 73 74 81 76 70 67 66 64 68 69 52 46 56 57 45 47 48 49 51 46 43 45 48 45 60 86 76 77 69 70 50 45 47 46 51 55 69 62
80 71 75 79 73 68 68 70 73 74 75 76 78 68 76 73 53 54 51 49 55 50 63 62 56 60 58 56 53 52 56 56 58 55 60 74 77 66 66 64 58 52 77 84 91 92 86
81 82 74 69 68 67 68 75 84 78 79 79 90 73 75 84 61 59 62 69 65 68 67 64 63 67 69 59 59 51 57 63 65 62 63 56 61 79 73 72 54 71 91 97 95 91 95
79 80 69 69 72 73 79 82 82 78 78 84 92 92 74 78 72 54 60 57 62 66 66 70 64 69 70 84 76 70 72 68 85 88 63 63 57 68 86 81 85 91 84 80 97 90 94
79 72 72 72 73 76 81 83 83 79 78 83 92 90 80 95 79 60 60 62 60 63 75 77 72 69 67 86 90 86 75 69 84 93 86 88 88 84 79 84 72 89 94 98 97 95 94
76 76 73 73 76 78 81 82 82 77 74 76 94 90 83 96 76 71 59 66 65 63 77 76 72 73 80 91 86 89 91 82 88 92 91 76 81 86 83 88 85 89 81 89 96 96 92
76 77 76 77 76 80 82 84 80 76 72 72 89 83 79 90 75 79 76 70 57 55 74 76 74 90 87 85 83 86 92 92 94 89 90 93 96 90 91 91 96 96 96 97 95 92 92

GFSGBSN_sfc_rhum_108.txt.gz
RH
74 76 78 78 80 80 79 82 88 91 95 93 92 92 91 89 88 87 86 85 81 77 71 67 66 69 41 22 20 25 70 61 33 27 18 16 16 15 14 11 11 18 11 11 12 12 12
76 78 78 77 78 78 78 81 85 88 90 95 94 93 92 91 89 89 87 87 84 75 68 66 66 72 39 31 11 15 16 28 20 22 16 14 14 13 14 12 13 13 16 15 15 16 15
71 74 76 79 80 82 82 84 85 86 87 90 92 94 93 92 91 91 90 88 83 71 68 66 65 47 48 28 14 17 23 22 20 22 18 16 14 15 16 20 16 19 19 15 15 16 15
70 72 72 78 81 82 84 86 86 86 86 87 88 90 94 93 92 93 91 89 83 73 69 67 66 53 46 20 20 24 18 19 22 21 19 19 19 22 23 16 17 19 18 22 16 18 17
70 71 72 78 74 75 75 78 81 82 81 85 87 88 92 94 94 93 93 88 82 73 66 63 56 55 43 33 26 18 18 16 14 22 22 17 20 20 19 21 20 20 21 20 18 16 15
68 66 68 77 78 79 81 82 82 82 83 84 86 86 89 94 95 94 92 79 72 72 68 58 58 59 42 33 20 27 27 16 13 23 27 24 21 23 22 20 24 20 20 19 22 16 18
66 67 70 76 80 81 79 80 81 80 79 82 88 87 87 95 95 92 86 85 89 82 74 52 47 42 23 21 28 26 28 29 15 14 18 21 23 24 21 21 18 17 20 19 16 14 16
74 76 76 74 76 78 77 80 78 79 80 81 85 90 88 95 94 87 69 74 63 52 66 54 45 43 36 31 35 26 22 28 28 21 15 19 26 15 15 17 20 21 23 22 18 18 22
80 78 75 72 71 76 79 79 79 80 81 82 84 92 90 95 92 87 75 57 50 50 78 53 40 42 37 33 40 33 24 23 29 26 23 27 21 22 22 24 28 27 26 24 24 19 18
78 79 80 74 74 77 80 80 84 86 86 84 86 93 96 94 93 78 77 51 60 50 90 51 43 37 34 34 42 26 21 22 28 31 26 30 22 28 27 26 24 27 19 23 23 22 21
78 79 81 76 79 83 81 84 87 86 85 90 92 93 95 82 88 86 61 62 63 60 93 30 31 24 31 35 25 24 20 24 28 27 32 33 23 23 30 24 23 24 18 22 23 24 25
77 81 82 77 82 85 87 89 87 85 92 93 94 94 88 88 81 65 55 55 83 96 90 51 27 35 40 34 28 28 25 22 21 30 26 25 19 23 22 20 21 20 25 25 25 25 33
81 82 82 78 80 83 87 89 89 92 95 95 95 91 82 64 81 67 58 80 96 90 36 36 33 32 33 30 31 32 31 31 30 38 35 25 24 24 28 28 25 25 30 35 36 38 28
81 83 83 79 80 84 89 91 93 96 97 96 92 89 83 88 82 73 83 93 97 54 42 29 30 31 33 21 29 32 32 33 32 29 29 33 42 29 25 27 26 28 27 31 33 26 21
77 81 82 81 80 88 93 93 96 97 97 93 90 96 96 94 87 80 92 97 75 57 33 36 28 42 36 24 25 33 38 30 29 32 31 40 37 30 27 25 26 30 39 31 46 36 40
73 80 81 84 77 84 92 96 97 97 93 85 95 95 98 94 88 94 99 96 61 31 24 24 32 33 36 26 23 27 39 38 43 41 38 56 54 41 35 26 23 30 24 47 49 47 29
78 81 81 86 80 77 85 94 96 92 85 82 95 99 96 94 88 98 97 80 50 26 24 28 27 33 31 30 23 29 39 43 44 56 46 47 47 44 36 34 30 26 26 28 36 35 36
80 83 86 88 85 84 78 82 89 90 89 85 99 98 97 94 100 99 91 70 60 49 38 32 30 34 36 50 32 36 42 41 41 39 39 46 36 34 31 32 31 26 28 25 47 34 35
83 86 84 86 88 89 87 85 86 89 85 97 100 100 97 97 98 88 71 67 40 35 31 34 43 33 35 70 71 52 50 50 45 41 43 41 36 35 31 37 37 35 36 39 56 49 47
84 83 85 84 86 88 89 90 88 88 88 95 99 99 100 99 97 67 78 81 65 36 33 31 40 39 46 48 53 55 52 40 46 42 57 39 33 27 20 32 33 47 37 36 49 66 40
78 88 88 84 85 87 86 86 89 89 86 86 79 88 62 96 96 80 74 73 60 52 30 28 34 37 40 47 44 48 43 40 45 63 58 44 47 35 30 26 33 29 30 34 36 39 57
80 89 84 81 82 85 86 85 87 90 81 68 94 60 51 58 73 77 70 51 40 36 34 34 34 33 32 34 31 40 41 37 40 56 55 57 63 54 43 34 32 34 27 27 31 36 36
88 87 82 87 85 85 87 85 87 88 71 65 55 56 53 78 75 73 63 39 35 39 41 28 32 35 38 39 35 33 34 34 36 48 68 55 58 54 52 32 33 41 34 30 27 36 40
86 79 80 81 86 82 83 85 86 82 78 59 65 49 62 90 65 52 41 34 39 36 45 40 37 41 49 42 41 40 39 39 41 38 41 48 60 47 47 61 55 72 50 56 60 64 75
81 78 78 83 77 79 72 72 79 76 77 72 66 56 54 70 42 39 38 44 46 47 49 48 52 55 50 39 37 35 42 47 50 42 41 41 43 60 63 51 40 56 92 96 96 84 89
78 76 78 74 75 67 66 73 72 77 71 78 66 68 53 63 44 34 44 38 43 49 52 61 58 54 53 65 55 47 48 44 71 71 56 48 44 58 65 71 64 97 78 67 93 86 90
84 81 73 69 72 76 82 80 83 80 82 70 74 76 54 84 56 43 41 44 39 43 47 54 55 55 52 68 77 66 56 48 67 86 71 78 73 78 69 77 62 79 93 89 95 96 88
78 75 74 72 69 83 82 81 84 85 80 71 80 71 68 84 64 52 46 45 42 32 47 60 56 58 59 73 69 70 76 62 72 89 86 67 74 79 81 89 82 84 76 91 94 92 91
74 69 75 77 82 84 82 83 84 81 77 71 68 61 59 80 67 60 60 51 41 39 42 55 63 74 68 64 54 64 82 83 84 87 75 95 95 91 91 90 96 93 96 96 93 89 91

GFSGBSN_sfc_rhum_114.txt.gz
RH
72 72 74 74 76 75 74 76 82 86 87 88 88 90 93 92 91 94 94 92 89 84 78 71 67 66 48 51 41 35 69 54 28 22 20 19 19 19 21 17 16 17 14 12 11 11 12
73 75 72 72 73 73 74 76 84 87 88 89 89 90 90 92 93 95 95 94 91 87 78 67 64 66 49 64 29 24 19 23 21 19 20 18 18 16 19 19 19 17 16 15 11 12 12
68 71 71 74 74 75 77 80 80 82 82 83 86 88 90 89 91 94 95 95 92 88 74 66 65 45 52 55 30 27 17 17 16 18 22 17 17 19 18 20 15 16 19 16 15 15 16
68 66 67 75 77 79 83 78 80 81 82 85 85 88 89 89 87 92 96 95 92 85 71 66 64 46 65 33 28 28 27 28 18 17 18 18 18 20 20 18 18 20 21 27 18 15 14
65 65 65 68 75 76 80 83 82 84 85 85 86 87 87 89 90 89 96 95 90 81 71 66 57 58 61 34 37 29 24 24 21 20 18 17 18 23 23 26 28 25 32 28 22 14 14
65 65 65 70 74 77 79 81 84 84 84 84 84 84 85 87 91 92 96 89 85 74 64 48 42 59 44 38 27 21 15 18 23 19 20 22 22 26 25 28 36 28 23 19 20 14 13
65 66 65 66 74 74 75 75 78 80 82 82 81 83 85 87 90 94 90 89 91 84 68 60 37 39 25 22 17 20 18 18 17 20 23 23 32 35 27 25 22 22 24 24 19 15 17
72 68 68 67 69 71 70 72 75 78 80 80 81 82 85 87 90 91 75 90 57 52 63 51 44 38 30 24 31 26 20 28 29 28 22 24 34 27 23 22 22 22 24 23 18 15 17
75 74 72 70 69 70 70 71 75 77 81 82 81 82 86 88 90 96 91 79 51 45 77 46 31 33 31 29 34 32 23 27 33 34 31 34 26 19 19 19 20 20 22 24 21 15 15
74 76 74 69 71 73 78 78 78 79 83 82 83 83 88 90 99 88 97 70 49 62 91 40 26 29 26 24 34 23 23 27 31 36 33 30 21 21 22 23 20 25 20 22 21 23 33
73 74 76 77 78 80 82 82 81 80 82 82 82 83 88 93 81 93 70 48 64 78 80 15 18 19 20 30 24 18 20 27 36 35 33 37 29 27 32 31 25 29 23 30 30 39 40
77 76 76 78 80 82 82 84 84 82 80 82 83 83 87 95 90 73 51 53 84 100 83 24 19 26 29 27 28 23 20 19 23 31 30 30 24 26 30 32 28 20 22 28 33 34 52
79 81 78 78 80 82 83 84 85 84 83 83 84 87 89 86 92 59 57 89 100 91 24 23 19 22 23 25 27 28 30 26 29 44 43 31 28 22 28 34 25 25 32 46 74 59 50
78 81 80 79 80 82 84 85 86 84 84 83 86 86 93 78 63 61 78 99 99 38 35 15 18 18 25 23 25 24 26 27 22 27 33 36 49 26 24 32 34 30 35 73 73 63 49
73 74 79 81 81 82 82 86 86 85 84 83 88 98 99 96 67 69 96 99 64 38 20 25 22 26 23 21 23 22 23 24 22 22 35 44 43 29 26 26 27 37 44 37 65 65 60
73 70 76 81 80 80 82 84 84 84 82 84 97 98 98 93 80 94 98 87 52 30 24 23 30 26 35 24 24 25 26 21 22 20 21 31 47 48 34 23 22 25 21 49 83 90 59
70 70 73 77 82 81 81 81 81 84 87 86 98 99 94 91 93 100 99 84 59 34 29 38 34 30 32 35 34 45 34 20 24 23 24 28 48 61 44 38 35 31 31 32 37 44 76
73 72 74 77 78 80 81 83 80 92 94 92 98 100 96 94 100 100 98 92 68 41 37 39 33 33 35 35 39 29 39 38 33 31 40 54 56 67 51 29 23 26 32 34 56 48 44
74 74 76 76 79 80 82 83 84 88 91 96 100 100 95 97 99 99 76 89 67 55 46 38 34 31 33 42 45 32 28 41 37 44 50 54 80 65 49 45 29 32 29 28 39 44 51
73 75 74 73 75 81 83 83 87 88 88 96 99 99 100 100 96 82 88 91 77 57 52 39 35 31 34 39 40 45 36 41 38 35 52 52 54 63 72 48 32 42 31 25 37 62 49
75 74 75 74 75 80 81 83 86 88 91 98 98 99 70 97 98 98 84 80 79 89 59 56 57 44 37 48 53 62 42 45 40 50 40 44 54 44 36 28 26 23 23 26 28 32 49
73 75 75 76 77 80 80 80 88 90 92 99 100 98 81 80 68 88 96 88 82 69 60 69 50 43 39 56 52 58 45 50 59 43 53 44 64 52 50 31 25 27 20 20 22 24 26
70 72 74 74 75 78 79 81 92 92 88 98 97 90 82 88 82 88 94 64 65 53 51 42 43 50 58 48 38 34 38 37 34 49 60 52 56 53 54 31 27 36 30 23 23 22 24
70 70 71 71 74 80 78 82 88 92 85 95 93 85 98 99 96 87 65 59 66 69 66 55 45 49 38 28 29 29 29 30 30 32 38 47 51 49 52 47 54 30 37 42 48 42 44
74 76 75 73 77 78 78 78 94 92 83 98 98 96 97 97 71 72 91 82 64 65 51 38 41 36 35 33 36 37 39 36 33 29 30 35 44 56 60 49 36 39 79 78 78 55 55
91 81 78 79 82 81 87 90 89 91 82 97 96 95 95 98 86 63 84 77 93 72 62 56 42 36 39 66 49 36 41 35 48 32 22 26 36 58 52 60 65 87 65 49 59 80 67
76 83 83 84 82 86 90 90 91 89 86 91 96 83 98 99 74 58 68 74 49 46 53 58 53 48 40 68 72 53 39 27 55 56 58 53 50 56 57 67 79 70 70 60 94 88 73
82 87 88 88 90 87 88 88 89 88 87 86 90 95 98 88 60 48 45 48 41 36 57 53 47 46 52 69 62 59 72 39 69 93 60 58 64 69 66 80 84 70 71 80 91 82 78
82 91 88 84 82 82 81 85 88 86 86 86 90 87 74 76 65 51 48 44 40 36 39 48 54 52 63 61 52 60 73 74 72 72 65 84 87 96 86 91 77 74 80 82 77 83 92

GFSGBSN_sfc_rhum_117.txt.gz
RH
71 71 73 74 74 74 72 74 83 86 87 88 89 89 86 84 88 94 94 95 95 91 84 78 71 68 60 64 54 38 64 58 40 28 25 25 27 28 31 26 25 26 24 20 19 18 17
71 75 76 74 73 72 73 77 82 84 86 85 86 89 89 89 89 91 94 96 95 92 86 74 68 68 62 82 38 33 40 35 25 25 25 25 26 24 27 26 28 23 21 20 19 19 18
67 70 73 75 77 76 75 82 80 81 82 82 87 88 88 88 90 89 90 95 95 93 85 72 66 54 61 71 41 39 34 33 26 28 30 26 25 28 28 30 23 23 28 24 23 21 20
68 69 68 75 75 77 81 84 80 80 83 86 87 88 89 88 89 90 88 93 96 91 80 68 66 55 75 42 40 43 42 42 31 22 23 23 25 30 33 28 27 29 30 36 25 22 20
66 66 67 72 75 77 80 82 85 84 85 86 86 87 89 88 89 89 91 93 94 84 75 69 71 69 81 41 47 39 39 41 30 32 25 19 26 34 33 41 46 39 49 39 31 23 23
66 68 67 71 74 76 79 81 83 85 84 84 84 85 86 88 89 95 95 90 86 81 75 58 54 70 56 40 31 31 33 30 31 32 31 29 35 40 43 51 62 49 43 38 33 26 21
68 66 68 70 72 72 72 76 80 80 81 82 83 84 86 87 89 92 93 95 95 97 75 76 63 55 36 29 25 30 21 25 26 32 38 33 47 54 41 36 35 33 34 35 29 22 24
78 74 69 69 69 68 70 72 76 79 80 82 84 85 85 87 89 91 82 89 74 64 87 69 62 52 37 33 42 33 26 35 33 38 34 35 42 36 32 32 34 34 35 34 25 20 21
77 77 75 73 71 69 69 72 77 79 80 83 85 86 86 88 84 97 94 81 61 55 93 58 46 56 52 42 46 42 33 34 41 44 42 42 34 26 28 30 32 32 33 30 28 27 30
75 77 76 72 70 72 75 78 80 81 81 83 85 86 87 88 95 91 95 79 64 68 99 60 39 36 34 38 44 33 31 35 42 45 43 46 34 33 32 32 27 34 29 30 32 50 60
77 79 78 78 78 77 80 82 84 83 83 82 83 86 87 88 95 88 76 77 63 78 85 22 25 22 27 38 31 28 24 35 47 46 45 46 42 42 42 37 28 35 39 30 28 42 55
78 78 79 77 78 80 82 84 84 86 86 85 84 85 87 91 98 81 69 64 83 96 92 36 26 33 34 35 34 28 29 33 33 43 42 42 31 34 35 30 35 36 38 38 38 52 77
74 76 80 82 80 81 83 83 84 86 87 86 85 85 89 86 93 66 60 92 99 99 30 23 24 28 34 35 34 32 36 40 43 49 52 40 39 33 31 39 47 53 51 74 82 77 61
77 79 78 81 83 81 82 83 85 88 88 86 86 87 88 85 86 61 87 99 100 52 35 19 22 22 30 29 29 28 38 44 34 33 44 50 64 40 44 45 57 52 46 88 85 82 72
72 75 78 80 85 83 83 84 84 87 88 87 86 96 98 98 80 73 95 98 80 48 28 32 29 34 31 26 28 30 35 38 31 29 39 51 53 35 32 33 46 48 52 43 72 72 81
69 72 77 78 81 83 84 84 85 86 86 85 98 95 98 96 78 94 98 85 68 41 32 35 44 34 36 34 37 34 35 27 29 26 32 42 52 52 46 30 32 36 31 69 92 94 83
72 72 74 76 78 82 82 83 83 82 84 87 96 99 95 97 88 99 99 90 65 47 39 44 45 43 44 44 45 62 70 55 39 31 33 51 59 72 55 54 44 40 44 44 66 78 92
74 74 75 75 75 76 79 82 82 83 85 94 95 99 97 95 100 100 98 79 61 53 45 48 49 48 58 50 50 60 73 81 54 48 56 65 77 94 73 45 40 39 44 43 74 61 68
73 73 75 76 75 76 78 80 82 85 84 99 100 100 96 100 99 98 84 76 66 62 60 52 54 48 57 51 64 54 56 49 50 56 66 61 89 84 66 57 55 57 40 41 54 60 68
72 72 73 72 72 76 78 80 82 86 85 96 100 99 100 100 97 98 85 82 78 65 63 57 56 52 49 53 53 58 51 52 52 52 59 60 80 75 69 67 62 60 45 37 51 84 60
71 73 74 74 74 75 76 78 82 84 86 97 99 98 88 98 97 99 91 84 75 78 59 59 68 67 60 67 57 60 54 58 49 56 56 60 69 61 49 42 42 61 49 36 40 47 63
69 72 74 73 72 73 73 76 82 83 87 98 100 100 97 91 77 97 99 98 77 68 68 87 76 64 68 76 69 84 57 65 66 61 61 60 81 67 64 42 39 39 29 27 29 33 33
69 69 72 72 73 72 72 77 81 81 90 99 98 95 97 87 94 97 91 88 86 70 71 63 70 73 74 70 60 54 46 55 58 66 75 69 77 75 81 49 45 53 44 40 31 52 55
67 67 70 70 72 72 73 77 80 81 86 96 96 94 100 96 96 90 72 76 78 73 80 52 68 81 70 61 46 42 42 39 42 58 58 76 72 74 77 62 70 70 55 55 55 69 74
67 68 69 69 72 74 77 76 82 82 77 98 97 98 99 99 83 77 74 68 68 69 77 64 61 64 58 56 61 50 55 50 44 42 47 52 67 80 80 81 60 63 80 86 85 92 80
70 70 68 71 74 76 77 79 83 81 82 96 98 98 99 98 96 66 75 94 100 100 95 88 58 58 60 89 76 57 64 52 68 40 33 43 50 80 83 83 83 95 75 58 72 97 81
74 74 79 80 81 83 79 82 82 79 79 95 99 95 99 99 91 70 84 95 92 94 93 74 63 57 57 94 93 81 67 43 65 69 58 68 75 74 87 88 95 75 83 62 94 90 72
84 87 89 83 84 85 84 85 86 89 90 92 97 94 97 100 96 80 70 86 91 73 79 73 70 68 74 86 87 89 92 68 88 90 71 69 80 91 86 88 90 81 82 89 94 89 91
82 80 87 89 88 86 84 86 91 91 90 90 99 97 96 99 97 81 73 68 61 56 64 65 73 69 84 90 82 92 92 92 89 97 81 92 91 96 95 98 88 81 92 88 87 90 97

GFSGBSN_sfc_rhum_123.txt.gz
RH
80 79 80 79 81 76 74 79 81 84 87 85 85 86 84 82 83 88 90 90 91 96 95 90 80 73 66 81 73 51 66 61 41 33 30 34 37 39 42 37 35 35 33 28 27 26 27
82 80 81 83 79 74 73 80 78 83 81 83 86 87 85 81 81 83 88 90 90 94 96 88 74 68 69 84 43 46 45 45 36 38 36 33 36 37 41 39 41 34 33 32 28 27 27
76 78 81 85 81 76 73 82 80 79 81 84 87 87 86 83 83 85 87 90 90 91 89 84 70 62 74 75 54 54 49 50 48 46 48 37 36 36 38 40 37 33 39 35 31 29 29
72 73 74 80 80 79 78 78 83 80 80 85 82 85 85 87 88 89 89 91 90 78 85 80 70 64 89 50 58 55 59 53 48 47 47 44 35 38 42 36 37 40 43 51 34 27 27
71 71 72 76 76 76 78 78 81 83 83 84 82 84 86 88 89 91 93 94 92 90 82 74 76 72 88 49 43 38 49 50 48 47 46 32 36 40 44 51 56 54 67 51 39 29 32
72 70 70 68 76 77 78 78 80 82 83 81 81 84 86 87 90 94 89 91 88 83 78 67 64 86 60 38 35 42 49 46 51 48 44 44 44 48 50 57 75 58 57 66 50 35 32
71 70 68 72 75 70 67 66 73 77 79 80 80 82 86 87 90 91 91 95 90 91 81 86 75 75 49 38 35 34 42 49 45 44 53 45 58 60 49 48 48 52 56 57 50 37 41
78 77 73 74 75 72 69 69 75 78 78 78 82 84 85 87 86 90 95 98 89 80 94 78 72 70 50 48 62 46 36 48 47 51 51 54 64 48 42 43 46 48 51 52 46 39 40
76 78 78 76 76 75 72 71 76 78 78 79 82 84 84 86 83 94 96 92 89 75 96 75 70 77 70 60 66 54 44 44 47 48 48 58 47 39 42 45 47 48 53 51 49 40 41
74 72 74 73 79 80 79 77 80 81 80 82 82 85 85 88 86 97 94 83 86 73 94 63 73 64 59 59 75 50 40 44 52 55 52 52 37 38 42 46 44 54 41 42 50 59 68
80 79 77 79 80 80 81 79 81 83 82 86 85 84 85 86 94 93 72 87 83 75 33 26 52 41 51 61 43 50 43 47 54 55 56 62 56 60 57 49 47 56 48 50 51 63 61
79 80 80 80 83 83 83 82 83 85 86 86 88 86 86 91 95 93 88 81 84 73 30 28 46 55 65 59 46 46 49 47 46 58 58 56 49 49 50 42 45 44 53 57 60 55 86
81 80 80 80 81 83 82 85 86 86 86 88 88 87 89 89 93 91 83 91 95 70 26 28 48 54 57 56 51 44 53 58 60 74 75 63 60 53 46 58 52 55 64 88 94 82 76
82 81 81 80 80 81 82 84 84 86 87 87 88 88 89 89 92 86 93 96 96 38 43 33 26 34 59 48 51 49 51 60 52 55 61 64 66 46 43 50 57 67 68 93 90 83 74
82 81 82 81 81 81 81 84 84 83 83 87 88 98 99 97 91 92 99 96 79 63 41 41 32 33 30 32 40 50 56 51 47 47 60 67 60 45 42 46 47 60 80 70 81 79 88
79 81 81 81 81 82 83 83 83 84 83 88 98 97 97 90 96 96 98 81 72 52 42 46 50 43 52 48 52 48 51 45 44 44 44 51 62 56 52 38 41 51 52 74 92 96 93
81 82 82 83 82 82 80 81 82 83 83 86 96 99 91 96 94 99 94 81 65 46 47 60 59 51 56 66 60 62 57 52 56 51 45 49 57 66 59 57 54 48 56 62 79 88 94
82 84 83 83 81 80 80 80 81 82 83 85 97 99 90 99 100 96 92 73 56 50 50 49 55 56 61 65 71 68 66 57 58 59 53 61 72 86 65 56 46 47 52 59 82 77 84
80 81 81 82 81 81 80 78 79 80 84 98 100 96 96 99 98 97 80 76 64 64 59 63 69 61 60 62 74 64 57 61 71 65 71 70 86 93 73 66 63 66 58 53 66 76 71
77 77 78 78 78 80 80 80 77 77 80 93 100 100 100 98 92 88 81 75 78 66 67 63 71 70 80 76 78 81 67 57 64 61 70 68 77 68 66 62 65 72 62 52 64 94 80
74 77 79 79 80 81 80 80 81 80 78 94 99 98 84 99 93 93 81 72 75 71 64 67 74 72 80 90 81 87 70 61 54 59 71 73 79 78 69 58 64 76 71 69 70 78 93
72 76 79 80 79 80 80 81 80 81 81 96 100 97 97 92 85 86 89 90 79 67 65 70 78 74 82 84 73 68 70 67 62 61 63 66 84 67 64 52 49 68 75 72 68 67 61
73 74 77 78 78 77 76 80 80 81 80 98 98 97 97 82 99 91 83 75 73 72 64 61 60 81 82 74 79 81 80 74 69 70 73 72 87 93 94 59 47 59 62 63 56 67 68
72 72 74 76 76 74 74 78 81 81 80 96 96 96 95 94 92 88 76 70 71 70 74 69 65 74 60 74 79 83 87 80 72 76 66 79 84 97 92 60 82 72 68 73 77 86 91
70 71 72 73 73 74 76 77 79 81 80 95 97 96 92 91 73 74 81 94 68 64 72 71 70 68 76 84 97 97 93 93 85 94 94 72 91 96 89 83 66 75 80 85 81 75 86
71 71 70 71 75 77 78 78 79 80 81 92 93 95 97 99 82 70 90 98 99 98 95 89 74 73 88 100 99 95 90 85 95 68 73 69 66 82 87 84 92 75 82 72 70 86 86
70 71 72 71 75 77 77 78 80 80 80 90 97 90 93 99 93 84 82 87 87 88 97 94 93 97 90 98 98 96 89 59 83 79 84 94 81 82 88 86 78 74 83 76 86 79 87
73 72 74 75 76 77 77 79 79 80 80 87 92 93 92 96 88 86 92 92 97 95 93 97 97 99 100 98 95 92 90 68 77 80 70 76 80 94 89 88 82 82 86 84 88 98 93
73 72 73 75 76 75 75 78 79 80 80 81 98 94 91 96 94 91 90 89 87 77 82 97 94 96 94 94 85 90 95 95 91 86 81 74 79 83 77 82 95 94 94 95 92 94 92

GFSGBSN_sfc_rhum_129.txt.gz
RH
92 89 87 86 85 80 74 80 80 82 85 82 83 82 79 76 76 79 84 85 89 88 93 80 81 76 62 43 26 44 57 52 32 26 26 28 30 30 33 33 30 32 29 28 27 28 26
91 90 88 86 84 77 75 80 78 83 81 82 84 82 77 76 77 79 83 86 89 90 82 76 77 72 63 25 32 47 47 41 35 28 28 26 29 30 34 34 33 32 32 31 30 28 29
86 86 85 86 86 80 78 83 80 82 80 82 82 80 77 78 80 82 84 88 90 88 80 76 75 61 75 29 46 50 50 42 40 40 38 34 33 29 32 36 32 32 36 34 32 29 26
84 81 80 87 88 83 80 78 84 79 79 81 79 80 82 84 86 88 92 93 92 88 80 77 70 66 59 46 52 51 52 46 48 43 42 42 42 33 33 32 35 38 40 40 30 27 28
87 86 84 84 86 83 82 80 79 78 82 83 77 81 84 86 88 93 90 90 90 85 82 76 69 72 38 42 34 35 44 44 49 49 45 38 34 37 35 44 46 46 43 45 33 28 29
85 84 81 81 84 82 79 79 80 82 83 82 75 77 82 86 89 90 86 88 82 79 76 66 63 58 32 27 37 45 45 46 49 52 50 48 41 40 43 46 34 44 46 42 41 30 30
81 81 79 79 80 75 72 72 80 80 78 79 75 77 79 85 86 89 89 82 67 61 82 44 44 42 44 43 39 40 46 48 42 46 56 48 56 61 51 45 41 41 44 44 38 33 38
82 81 80 78 78 74 71 72 78 71 79 80 76 77 78 80 83 87 87 86 82 81 73 70 70 67 59 51 47 38 36 48 47 56 45 47 64 56 50 50 46 46 47 44 38 35 36
80 81 80 79 79 77 76 76 79 76 80 80 80 79 78 83 84 89 94 83 77 69 84 60 71 75 64 56 50 46 37 44 48 52 51 54 44 43 48 47 49 47 48 46 42 38 39
81 81 80 79 78 79 81 80 80 80 78 80 81 80 81 81 77 90 87 73 80 74 66 30 59 60 66 63 59 49 39 39 44 46 48 49 41 41 44 42 43 52 39 40 44 51 57
80 80 78 79 80 82 83 83 82 81 82 83 83 82 82 74 86 89 78 85 81 58 36 32 64 50 61 62 54 54 44 41 49 50 46 44 51 46 47 43 38 44 40 45 49 55 59
81 80 79 79 79 80 82 84 83 82 84 85 87 84 85 92 93 85 84 83 74 64 32 22 61 66 68 62 51 49 44 40 42 50 50 46 43 45 42 43 40 43 47 53 53 53 67
82 80 79 78 79 79 81 85 84 82 83 86 88 87 82 86 81 83 81 89 75 47 18 27 52 64 58 56 49 52 53 59 52 56 56 52 48 43 43 46 48 48 57 64 68 73 61
83 80 81 79 78 79 79 82 83 83 86 87 88 89 87 80 85 83 92 88 62 20 24 26 26 55 56 50 48 47 60 58 54 46 60 53 48 47 49 46 48 59 57 61 76 70 50
82 85 82 81 80 80 79 80 82 84 85 86 89 99 96 93 90 83 98 96 39 31 30 46 23 20 20 28 45 46 51 51 46 47 51 58 54 38 46 45 39 57 63 51 66 67 72
81 81 84 82 80 82 81 80 81 82 82 87 97 95 96 92 92 91 99 75 66 50 45 42 20 34 29 49 40 40 42 41 45 46 46 51 57 42 40 37 37 50 47 65 75 83 73
78 80 81 85 80 78 81 81 81 81 83 81 96 99 87 94 90 94 96 82 62 50 46 53 52 45 56 55 60 55 50 43 47 45 44 48 56 52 51 46 45 56 58 58 63 70 84
77 79 84 85 84 81 80 80 78 79 84 82 98 100 88 96 98 97 88 73 62 52 48 48 53 55 56 60 55 54 60 53 52 51 46 48 60 62 53 49 48 43 52 54 74 68 76
74 79 79 81 82 85 82 81 80 78 82 97 100 100 93 98 96 96 69 68 62 61 53 53 60 56 53 56 53 58 49 46 46 55 60 70 77 61 58 59 62 79 62 52 61 59 64
72 78 79 75 78 82 84 86 84 80 82 94 99 99 100 100 88 74 73 67 71 64 58 58 66 66 66 68 58 60 68 58 64 59 74 75 75 74 68 52 52 66 60 50 59 75 60
70 72 75 76 77 80 82 81 82 84 82 96 99 99 85 98 93 85 75 69 62 62 64 62 66 57 72 77 76 77 74 70 56 55 67 78 75 70 64 59 57 54 54 56 56 54 67
70 72 73 76 78 82 79 82 82 83 86 95 99 99 97 88 77 90 88 81 72 68 63 70 68 67 66 67 61 53 57 55 62 56 68 73 86 69 69 58 59 65 59 56 57 55 52
71 72 74 76 77 73 73 83 86 85 89 99 99 94 89 94 86 92 80 72 68 69 64 59 64 72 76 68 66 64 64 61 61 67 74 77 85 85 82 70 77 82 64 61 57 55 58
72 72 72 71 73 76 72 82 85 91 92 98 97 96 94 95 88 82 72 71 76 68 74 63 61 77 59 57 70 74 82 79 79 78 73 88 95 88 86 87 92 51 58 58 64 60 62
71 71 70 69 70 72 76 80 83 84 92 94 98 95 94 94 76 75 76 72 75 81 86 74 64 57 64 69 79 83 72 92 76 78 75 72 78 89 92 81 62 55 76 79 77 56 64
71 71 69 70 73 74 78 78 80 86 87 97 97 94 94 93 82 61 74 73 87 84 79 74 64 65 73 89 88 92 72 72 80 76 72 79 74 92 94 92 88 70 68 58 54 66 78
68 68 69 70 72 75 78 81 83 83 87 96 98 90 98 98 85 67 74 76 74 78 89 86 90 88 74 97 96 85 75 61 67 65 85 95 98 95 89 94 75 53 73 58 70 72 81
75 73 70 70 72 74 78 78 80 84 83 95 99 88 93 97 84 77 74 84 89 81 81 76 80 90 100 98 88 81 92 77 82 80 83 81 94 92 93 96 91 73 72 64 76 83 80
77 85 78 74 74 76 79 78 78 80 84 92 99 93 92 96 88 73 64 67 70 81 95 93 96 98 99 96 96 92 95 91 85 85 71 92 88 88 79 80 83 74 84 81 76 78 84